PAL7741 RPLL-RCTP

Flight info

Callsign PAL7741
Flight time N/A
Altitude 250
Route ALPAS2R ALPAS M646 SANRO/N0475F390 M646 POTIB Q14 TNN TNN1A
Aircraft A388/J-SADE2E3FGHIJ3J4J5M1RWXY/LB1D1

Departure

Time 2026-05-06 14:30
Airport Ninoy Aquino International Airport (RPLL)

Arrival

Time N/A
Airport Taiwan Taoyuan International Airport (RCTP)
Time Latitude Longitude Altitude Speed Heading
2026-05-06 13:51 14.51701 121.01461 74 ft 0 kts 44°
2026-05-06 14:09 14.51689 121.01448 63 ft 4 kts 45°
2026-05-06 14:10 14.51670 121.01428 63 ft 4 kts 45°
2026-05-06 14:10 14.51655 121.01413 63 ft 4 kts 55°
2026-05-06 14:10 14.51650 121.01392 63 ft 4 kts 122°
2026-05-06 14:10 14.51668 121.01371 63 ft 3 kts 135°
2026-05-06 14:11 14.51671 121.01368 63 ft 1 kts 135°
2026-05-06 14:14 14.51627 121.01413 63 ft 22 kts 134°
2026-05-06 14:15 14.51521 121.01525 65 ft 22 kts 135°
2026-05-06 14:15 14.51421 121.01628 64 ft 19 kts 135°
2026-05-06 14:15 14.51327 121.01727 66 ft 20 kts 135°
2026-05-06 14:15 14.51231 121.01826 63 ft 20 kts 135°
2026-05-06 14:16 14.51171 121.01887 66 ft 0 kts 135°
2026-05-06 14:18 14.51141 121.01918 63 ft 13 kts 135°
2026-05-06 14:18 14.51047 121.01974 66 ft 9 kts 198°
2026-05-06 14:19 14.51021 121.01946 67 ft 10 kts 234°
2026-05-06 14:19 14.50954 121.01836 66 ft 17 kts 240°
2026-05-06 14:19 14.50921 121.01775 65 ft 11 kts 242°
2026-05-06 14:19 14.50866 121.01675 63 ft 12 kts 240°
2026-05-06 14:20 14.50836 121.01621 66 ft 10 kts 240°
2026-05-06 14:20 14.50803 121.01563 63 ft 12 kts 239°
2026-05-06 14:20 14.50755 121.01478 64 ft 12 kts 240°
2026-05-06 14:20 14.50707 121.01390 68 ft 16 kts 240°
2026-05-06 14:21 14.50667 121.01318 63 ft 12 kts 240°
2026-05-06 14:21 14.50615 121.01224 66 ft 17 kts 240°
2026-05-06 14:21 14.50568 121.01138 63 ft 12 kts 240°
2026-05-06 14:21 14.50518 121.01049 69 ft 14 kts 240°
2026-05-06 14:22 14.50472 121.00967 65 ft 13 kts 240°
2026-05-06 14:22 14.50425 121.00885 63 ft 16 kts 240°
2026-05-06 14:22 14.50361 121.00771 65 ft 21 kts 239°
2026-05-06 14:22 14.50283 121.00633 65 ft 24 kts 240°
2026-05-06 14:23 14.50195 121.00478 63 ft 26 kts 239°
2026-05-06 14:23 14.50104 121.00314 65 ft 27 kts 241°
2026-05-06 14:23 14.50019 121.00155 68 ft 27 kts 240°
2026-05-06 14:23 14.49951 121.00030 64 ft 14 kts 240°
2026-05-06 14:24 14.49946 121.00022 68 ft 0 kts 240°
2026-05-06 14:27 14.49943 121.00016 65 ft 0 kts 240°
2026-05-06 14:27 14.49936 121.00004 65 ft 3 kts 238°
2026-05-06 14:28 14.49927 120.99991 65 ft 5 kts 229°
2026-05-06 14:28 14.49888 120.99974 65 ft 8 kts 178°
2026-05-06 14:28 14.49829 120.99995 68 ft 10 kts 142°
2026-05-06 14:28 14.49812 121.00049 70 ft 8 kts 78°
2026-05-06 14:29 14.49835 121.00095 68 ft 0 kts 59°
2026-05-06 14:29 14.49838 121.00100 67 ft 9 kts 59°
2026-05-06 14:29 14.50049 121.00486 63 ft 115 kts 60°
2026-05-06 14:30 14.50572 121.01429 229 ft 171 kts 62°
2026-05-06 14:30 14.51200 121.02506 990 ft 181 kts 60°
2026-05-06 14:30 14.51855 121.03649 1693 ft 191 kts 61°
2026-05-06 14:30 14.51905 121.03737 1739 ft 192 kts 60°